Showing default

TELSTAR 19V, 43562

Orbit data source: Space-Track

TELSTAR 19V, 43562 is a payload satellite owned by Telesat/Skynet (CA) in GEO that was launched on Sun, 22 Jul 2018 UTC via an FALCON 9 launch vehicle from the Air Force Eastern Test Range (AFETR). Payload-class satellites include a variety of spacecraft equipped with specific instruments for various scientific and technological missions. These include communications satellites like Starlink; space stations such as the ISS; scientific satellites like the Hubble; Earth observation satellites from companies like Planet Labs, Umbra, and HawkEye 360; GPS; miniature CubeSats for education and research; and military/defense satellites.

Loading next visibility...
Identifier
43562, 2018-059A
Orbit
GEO
Country
Flag of CACA
Related business
Manufacturer
Maxar SSL
Mission
Operational Commercial Communications
Bus & Motor
LS-1300, R-4D
Mass
7,075 kg wet, ~2,000 kg dry
Launch date (UTC)
2018-07-22 (7 years ago)
Launch vehicle
FALCON 9
Launch site
Air Force Eastern Test Range (AFETR)
Object type
Payload
Rocket body
Debris
Shape & HBR
Box + 2 Pan, 13.1 m
Radar Cross Section
120.644 m², Large (>1 m²)

Expand to show TLE details & history
Last TLE update: 2 days ago

TLE from 2 days ago
0 TELSTAR 19V
1 43562U 18059A   25258.42935525 -.00000296  00000-0  00000-0 0  9998
2 43562   0.0198 187.9784 0002450 328.0928 290.1298  1.00269880 26381
Epoch: 2025-09-15T10:18Z
TLE epoch observation values (Epoch: 2025-09-15T10:18:16.293Z)
Latitude
-0.03633°
Longitude
-63.02942°
Altitude
35,783.075 km
Speed
3.075 km/s
True Right ascension
05h 44m 41s
True Declination
0° 02' 11"
Sunlit
Object was in daylight at epoch
Visualization orbit readout
Latitude
Unknown
Longitude
Unknown
Altitude
Unknown
Speed
Unknown
Apparent Right ascension
Unknown
Apparent Declination
Unknown
Sunlit
N/A
Visualization observer readout
Local Sidereal Time
19:47:31
Azimuth
Unknown
Elevation
Unknown
Doppler factor
Unknown
Orbital elements
Apogee altitude
35,798.53 km
Perigee altitude
35,777.869 km
Semi-major axis
42,166.336 km
Eccentricity
0.00025
Inclination
0.0198°
RAAN
187.9784°
Arg. of periapsis
328.0928°
True anomaly
290.10344°
Mean anomaly
290.1298°
Eccentric anomaly
290.11662°
Mean motion
0.25067 °/min
Orbital period
1,436.18 mins
BSTAR
0
Loading maneuver chart data...
Computing Atmospheric mass density...
Loading historical data...
Loading historical data...
Loading historical data...
Loading historical data...
Loading historical data...
Loading historical data...
Loading historical data...
Other satellites on launch #59 in the year 2018 (2018-07-22 UTC)

Documentation

Showing up to 5 results
|